Weather in Cirencester

United Kingdom     51°42′38″N   1°57′53″W
temp.,
°C
wind,
m/s
gust,
m/s
humid.,
%
clouds,
%
prec.,
mm/h
press.,
hPa
HPBL,
m
25 february, thu
thu2500:00+9sw61092100 0.3 1020577
03:00+8wsw41093100 0.0 1021484
06:00+7sw4796100 0.0 1023349
09:00+8wnw3783100 0.0 1026508
12:00+10w356799 0.0 1027983
15:00+10w456874 0.0 10291196
18:00+6nw348450 0.2 1030105
21:00+3nw37895 0.0 1033156
26 february, fri
fri2600:00+2nw23882 0.0 103536
03:00+2nw12870 0.0 103522
06:00+1nw12880 0.0 103622
09:00+5wsw11790 0.0 103799
12:00+8w11650 0.0 1038745
15:00+9w22620 0.0 10371067
18:00+4w22810 0.0 103722
21:00+3wsw12800 0.0 103822
27 february, sat
sat2700:00+2w22850 0.0 103823
03:00+1w22870 0.0 103822
06:000wsw11840 0.0 103822
09:00+5wsw11760 0.0 103899
12:00+9w23730 0.0 1039589
15:00+9nw348066 0.0 1037594
18:00+5nnw129367 0.0 103722
21:00+5nnw229471 0.0 103744
28 february, sun
sun2800:00+4n239660 0.0 103743
03:00+3nne239819 0.0 103664
06:00+2n229732 0.0 103650
09:00+5nne249495 0.0 1036211
12:00+8ne458390 0.1 1036730
15:00+9ene457595 0.2 10341012
18:00+5ene339053 0.3 103355
21:00+4ene33910 0.0 103355
1 march, mon
mon100:00+3ne33930 0.0 103368
03:00+2ne23950 0.0 103157
06:00+1ne35930 0.0 103090
09:00+4ene468523 0.0 1030276
12:00+7ene468062 0.0 1030646
15:00+8e3476100 0.0 1028926
18:00+5ene348878 0.1 102867
21:00+2e34921 0.0 102982